Simultaneous Nadir Overpasses (SNOs) Predictions

Prediction of SNOs between METOP-B and NOAA-19 Satellite Orbit:

Table of predicted SNOs for the next 14.0 days since TLE Epoch: 10/4/2013
Index Date (METOP-B) Time (METOP-B) Lat,Lon (METOP-B) SZA (METOP-B ) Date (NOAA-19) Time (NOAA-19) Lat,Lon (NOAA-19) SZA (NOAA-19 ) Distance(km) Time Diff (sec)
1 10/12/2013 17:33:47 -73.67, 90.73 98.76 10/12/2013 17:32:33 -73.70, 90.09 98.72 20.21 74
2 10/12/2013 18:24:30 73.55,-102.22 81.14 10/12/2013 18:23:35 73.54,-102.31 81.14 2.74 55
3 10/12/2013 19:15:12 -73.50, 65.00 98.90 10/12/2013 19:14:33 -73.49, 65.08 98.91 3.12 39
4 10/12/2013 20:05:53 73.48,-127.73 81.09 10/12/2013 20:05:38 73.48,-127.67 81.10 1.79 15
5 10/12/2013 20:56:33 -73.48, 39.61 98.90 10/12/2013 20:56:36 -73.47, 39.60 98.90 1.11 3
6 10/12/2013 21:47:14 73.45,-153.12 81.10 10/12/2013 21:47:41 73.46,-153.16 81.11 1.70 27
7 10/12/2013 22:37:55 -73.46, 14.22 98.89 10/12/2013 22:38:40 -73.45, 14.12 98.90 3.08 45
8 10/12/2013 23:28:36 73.43,-178.51 81.10 10/12/2013 23:29:44 73.40,-178.52 81.07 3.47 68
9 10/13/2013 00:19:26 -72.98, -12.16 99.32 10/13/2013 00:20:35 -72.99, -10.35 99.34 58.93 69




NCC Satellite Simultaneous Nadir Overpasses (SNOs) Prediction Service
